Regional Weather Roundup
Issued by NWS

Home | Current Version | Previous Version | Graphics & Text | Print | Product List | Glossary On
Versions: 1 2 3 4 5 6 7 8 9 10 11 12 13 14 15 16 17 18 19 20 21 22 23 24 25 26 27 28 29 30 31 32 33 34 35 36 37 38 39 40 41 42 43 44 45 46 47 48 49 50
036
ASUS45 KBOU 211007
RWRCO

WEATHER ROUNDUP FOR COLORADO
NATIONAL WEATHER SERVICE DENVER/BOULDER CO
300 AM MST TUE FEB 21 2017

NOTE: "FAIR" INDICATES FEW OR NO CLOUDS BELOW 12000 FEET WITH NO
SIGNIFICANT WEATHER AND/OR OBSTRUCTIONS TO VISIBILITY.

COZ001>005-013-030-031-211100-
...NORTHWEST COLORADO...

CITY           SKY/WX    TMP DP  RH WIND       PRES   REMARKS
CRAIG          CLOUDY    41  30  65 CALM      30.18S
HAYDEN         CLOUDY    36  27  69 NE7       30.19F
MEEKER         CLOUDY    43  32  65 W6        30.22S
MOUNT WERNER   NOT AVBL
STEAMBOAT SPGS CLOUDY    36  28  72 E12       30.20F
WALDEN         NOT AVBL
$$

COZ006>008-011-211100-
...WEST CENTRAL VALLEYS...

CITY           SKY/WX    TMP DP  RH WIND       PRES   REMARKS
GRAND JUNCTION MOCLDY    44  35  70 SE10      30.25R
MONTROSE       CLOUDY    43  33  68 S8        30.31F
EAGLE          CLOUDY    31  26  82 E5        30.29S WCI  26
RIFLE          CLOUDY    40  35  83 E6        30.25S
DELTA          CLOUDY    46  35  64 N6        30.31R
NUCLA          FAIR      45  32  61 S3        30.35S
$$

COZ017>023-064>068-211100-
...SOUTHWEST COLORADO...

CITY           SKY/WX    TMP DP  RH WIND       PRES   REMARKS
DURANGO        CLOUDY    34  28  79 NE3       30.37R
CORTEZ         CLOUDY    39  36  89 CALM      30.36R
PAGOSA SPRINGS CLOUDY    30  28  94 CALM      30.40R
TELLURIDE      FAIR      34  25  68 CALM      30.39F
WOLF CREEK PAS HVY SNOW  21  21 100 SW15      30.49R VSB<1/4 WCI   8
$$

COZ009-010-012-014-032>034-037-058>063-211100-
...CENTRAL COLORADO...

CITY           SKY/WX    TMP DP  RH WIND       PRES   REMARKS
ASPEN          FAIR      28  21  75 S6        30.28S WCI  22
BUENA VISTA    FAIR      37  19  48 NW5G21    30.26S
COPPER MTN     MOCLDY    30  21  69 W12G24    30.35R HAZE    WCI  21
BERTHOUD PASS  MOCLDY    21  12  68 W38G48    30.27S WCI   1
COTTONWOOD PAS FAIR      36  21  55 W17G28    30.29R
GUNNISON       CLOUDY    23  19  85 CALM      30.38S
KREMMLING      CLOUDY    43  28  56 E5        30.25R
LEADVILLE      MOCLDY    24  14  65 N9        30.29R WCI  14
MONARCH PASS   CLOUDY    19  18  93 SW22      30.48R WCI   3
SALIDA         FAIR      43  22  43 W24G31    30.33S
SUNLIGHT       NOT AVBL
WILKERSON PASS FAIR      28  18  64 SW10      30.35S WCI  19
$$

COZ069>075-211100-
...SAN LUIS VALLEY/SANGRE DE CRISTO MOUNTAINS...

CITY           SKY/WX    TMP DP  RH WIND       PRES   REMARKS
ALAMOSA        FAIR      25  22  88 CALM      30.32R
LA VETA PASS   FAIR      27  18  69 NE31G47   30.27S WCI  10
SAGUACHE       FAIR      30  19  64 W9        30.32F WCI  22
$$

COZ035-036-038>040-211100-
...NORTHERN COLORADO FRONT RANGE...

CITY           SKY/WX    TMP DP  RH WIND       PRES   REMARKS
DENVER INTL AP FAIR      42  12  29 W3        30.01R
DMNS CITY PARK   N/A     50  14  23 SW13G18   29.98F
AURORA         PTCLDY    52  15  22 W12       30.03R
FRONT RANGE AP FAIR      52  16  24 SW7G20    30.02R
ERIE MUNI ARPT FAIR      45  16  30 N3        30.00R
BOULDER MUN AP FAIR      55  23  28 W44G64    29.93F
CENTENNIAL     FAIR      52  15  23 W5        30.03R
BROOMFIELD     FAIR      50  18  27 W10G18    30.00F
FORT COLLINS   FAIR      53  24  32 SW8       30.00S
LONGMONT       FAIR      51  20  29 E12       29.99R
$$

COZ041-046-047-076>085-087-088-211100-
...PIKES PEAK/PALMER DIVIDE AND SOUTHERN FOOTHILLS...

CITY           SKY/WX    TMP DP  RH WIND       PRES   REMARKS
COLO. SPRINGS  FAIR      45   8  22 VRB7      30.07S
A. F. ACADEMY  FAIR      51  17  25 W31G49    30.02F
SCHRIEVER AFB  FAIR      41   7  24 N8        30.08S
ELLICOTT       FAIR     N/A N/A N/A VRB3      30.07R
FALCON         FAIR      49  15  26 W14       30.09S
FORT CARSON    FAIR      37   7  28 NW5       30.05R
LIMON          FAIR      21  11  65 N5        30.03F WCI  15
MONUMENT HILL  FAIR      37  14  38 W9        30.09F
TRINIDAD       FAIR      37  12  35 W15       30.10F
$$

COZ042>045-048>051-090-091-211100-
...NORTHEAST COLORADO...

CITY           SKY/WX    TMP DP  RH WIND       PRES   REMARKS
GREELEY ARPT   FAIR      28  19  69 N6        29.99F WCI  22
AKRON          FAIR      47  11  23 SW18      29.97S
BURLINGTON     FAIR      35  13  40 SW10      30.00F WCI  27
WRAY           NOT AVBL
STERLING       FAIR      30  19  64 S6        29.97S WCI  24
HOLYOKE        FAIR      41  19  42 SW12      29.96S
FORT MORGAN    FAIR      32  13  45 W8        30.00R WCI  25
$$

COZ086-089-092>099-211100-
...SOUTHEAST COLORADO...

CITY           SKY/WX    TMP DP  RH WIND       PRES   REMARKS
PUEBLO         FAIR      29  14  53 W6        30.05S WCI  23
LA JUNTA       FAIR      37  17  44 VRB3      30.03S
LAMAR          FAIR      29  14  53 CALM      30.00F
SPRINGFIELD      N/A     32  15  49 SW14      30.04F WCI  22
$$




USA.gov is the U.S. government's official web portal to all federal, state and local government web resources and services.